Lincoln County, Oregon, United States
Lat: 44.65N, Lon: 123.85W
Wx Zone: ORZ004
Local Info
Past Weather Observations for Friday, April 29, 2016

NOTE: This archive is for the closest National Weather Service station to Lincoln County. Information may differ from the station used for current weather conditions.

Click here for Long-term Archive

Time Weather Temperature Dewpoint Humidity Pressure Winds Precip Visibility
23:55
Mostly Cloudy
50°F / 10°C 43°F / 6°C 76% 30.33 in
(1027 mb)
N 8.1 mph
(N 13 kph)
- 10SM
23:35
Mostly Cloudy
50°F / 10°C 45°F / 7°C 82% 30.33 in
(1027 mb)
N 9.2 mph
(N 15 kph)
- 10SM
23:15
Overcast
52°F / 11°C 45°F / 7°C 77% 30.33 in
(1027 mb)
N 11.5 mph
(N 19 kph)
- 10SM
22:55
Overcast
50°F / 10°C 43°F / 6°C 76% 30.33 in
(1027 mb)
N 9.2 mph
(N 15 kph)
- 10SM
22:35
Overcast
52°F / 11°C 45°F / 7°C 77% 30.33 in
(1027 mb)
N 12.7 mph
(N 20 kph)
- 10SM
22:15
Overcast
52°F / 11°C 45°F / 7°C 77% 30.33 in
(1027 mb)
N 12.7 mph
(N 20 kph)
- 10SM
21:55
Mostly Cloudy
52°F / 11°C 45°F / 7°C 77% 30.33 in
(1027 mb)
N 11.5 mph
(N 19 kph)
- 10SM
21:35
Overcast
52°F / 11°C 45°F / 7°C 77% 30.33 in
(1027 mb)
NNW 12.7 mph
(NNW 20 kph)
- 10SM
21:15
Mostly Cloudy
52°F / 11°C 45°F / 7°C 77% 30.33 in
(1027 mb)
NNW 12.7 mph
(NNW 20 kph)
- 10SM
20:55
Mostly Cloudy
52°F / 11°C 45°F / 7°C 77% 30.33 in
(1027 mb)
NNW 12.7 mph
(NNW 20 kph)
- 10SM
20:35
Partly Cloudy
52°F / 11°C 46°F / 8°C 82% 30.3 in
(1026 mb)
NNW 15 mph
(NNW 24 kph)
- 10SM
20:15
Mostly Cloudy
52°F / 11°C 46°F / 8°C 82% 30.3 in
(1026 mb)
N 13.8 mph
(N 22 kph)
- 10SM
19:55
Mostly Cloudy
52°F / 11°C 46°F / 8°C 82% 30.3 in
(1026 mb)
NNW 11.5 mph
(NNW 19 kph)
- 10SM
19:35
Mostly Cloudy
52°F / 11°C 46°F / 8°C 82% 30.3 in
(1026 mb)
NNW 15 mph
(NNW 24 kph)
- 10SM
19:15
Mostly Cloudy
52°F / 11°C 46°F / 8°C 82% 30.3 in
(1026 mb)
N 11.5 mph
(N 19 kph)
- 10SM
18:55
Mostly Cloudy
52°F / 11°C 46°F / 8°C 82% 30.27 in
(1025 mb)
N 9.2 mph
(N 15 kph)
- 7SM
18:35
Mostly Cloudy
52°F / 11°C 46°F / 8°C 82% 30.27 in
(1025 mb)
N 10.4 mph
(N 17 kph)
- 7SM
18:15
Partly Cloudy
52°F / 11°C 48°F / 9°C 88% 30.27 in
(1025 mb)
N 16.1 mph
(N 26 kph)
- 7SM
17:55
Mostly Cloudy
Drizzle
54°F / 12°C 50°F / 10°C 88% 30.27 in
(1025 mb)
N 15 mph
(N 24 kph)
- 7SM
17:35
Partly Cloudy
55°F / 13°C 50°F / 10°C 82% 30.27 in
(1025 mb)
NNW 16.1 mph
(NNW 26 kph)
- 7SM
17:15
Partly Cloudy
54°F / 12°C 50°F / 10°C 88% 30.27 in
(1025 mb)
NNW 17.3 mph
(NNW 28 kph)
- 7SM
16:55
Partly Cloudy
54°F / 12°C 50°F / 10°C 88% 30.27 in
(1025 mb)
NNW 13.8 mph
(NNW 22 kph)
- 10SM
16:35
Partly Cloudy
54°F / 12°C 50°F / 10°C 88% 30.27 in
(1025 mb)
NNW 15 mph
(NNW 24 kph)
- 10SM
16:15
Partly Cloudy
54°F / 12°C 50°F / 10°C 88% 30.24 in
(1024 mb)
NNW 12.7 mph
(NNW 20 kph)
- 10SM
15:55
Mostly Cloudy
54°F / 12°C 50°F / 10°C 88% 30.24 in
(1024 mb)
NNW 15 mph
(NNW 24 kph)
0.01 in
(0.25 mm)
7SM
15:35
Mostly Cloudy
55°F / 13°C 50°F / 10°C 82% 30.24 in
(1024 mb)
NNW 13.8 mph
(NNW 22 kph)
- 7SM
15:15
Overcast
54°F / 12°C 50°F / 10°C 88% 30.24 in
(1024 mb)
NW 8.1 mph
(NW 13 kph)
- 10SM
14:55
Overcast
55°F / 13°C 52°F / 11°C 88% 30.24 in
(1024 mb)
WNW 8.1 mph
(WNW 13 kph)
- 10SM
14:35
Overcast
54°F / 12°C 52°F / 11°C 94% N/A NW 4.6 mph
(NW 7 kph)
- 10SM
14:15
Mostly Cloudy
54°F / 12°C 52°F / 11°C 94% 30.24 in
(1024 mb)
NW 5.8 mph
(NW 9 kph)
- 10SM
13:55
Overcast
Fog And Mist
52°F / 11°C 50°F / 10°C 94% 30.24 in
(1024 mb)
SSW 4.6 mph
(SSW 7 kph)
- 5SM
13:35
Overcast
Fog And Mist
52°F / 11°C 50°F / 10°C 94% 30.24 in
(1024 mb)
WNW 5.8 mph
(WNW 9 kph)
- 5SM
13:15
Overcast
Light Rain
52°F / 11°C 50°F / 10°C 94% 30.24 in
(1024 mb)
W 6.9 mph
(W 11 kph)
- 5SM
12:55
Mostly Cloudy
Fog And Mist
54°F / 12°C 52°F / 11°C 94% 30.21 in
(1023 mb)
W 5.8 mph
(W 9 kph)
- 5SM
12:35
Overcast
52°F / 11°C 50°F / 10°C 94% 30.21 in
(1023 mb)
W 5.8 mph
(W 9 kph)
- 10SM
12:15
Overcast
Fog And Mist
52°F / 11°C 52°F / 11°C 100% 30.21 in
(1023 mb)
W 5.8 mph
(W 9 kph)
- 5SM
11:55
Overcast
Fog And Mist
52°F / 11°C 50°F / 10°C 94% 30.21 in
(1023 mb)
WNW 4.6 mph
(WNW 7 kph)
0.01 in
(0.25 mm)
3SM
11:35
Overcast
Drizzle
52°F / 11°C 50°F / 10°C 94% 30.21 in
(1023 mb)
NW 6.9 mph
(NW 11 kph)
- 1 1/2SM
11:15
Overcast
Fog And Mist
52°F / 11°C 50°F / 10°C 94% 30.21 in
(1023 mb)
W 6.9 mph
(W 11 kph)
- 5SM
10:55
Overcast
Rain
50°F / 10°C 48°F / 9°C 94% 30.21 in
(1023 mb)
WNW 4.6 mph
(WNW 7 kph)
0.04 in
(1.02 mm)
2SM
10:35
Mostly Cloudy
Light Rain
52°F / 11°C 48°F / 9°C 88% 30.21 in
(1023 mb)
NW 4.6 mph
(NW 7 kph)
0.03 in
(0.76 mm)
3SM
10:15
Mostly Cloudy
54°F / 12°C 46°F / 8°C 77% 30.21 in
(1023 mb)
NW 9.2 mph
(NW 15 kph)
- 7SM
09:55
Overcast
54°F / 12°C 46°F / 8°C 77% 30.21 in
(1023 mb)
NW 8.1 mph
(NW 13 kph)
- 10SM
09:35
Overcast
54°F / 12°C 46°F / 8°C 77% 30.21 in
(1023 mb)
NW 5.8 mph
(NW 9 kph)
- 10SM
09:15
Mostly Cloudy
54°F / 12°C 46°F / 8°C 77% 30.21 in
(1023 mb)
WNW 6.9 mph
(WNW 11 kph)
- 10SM
08:55
Mostly Cloudy
54°F / 12°C 46°F / 8°C 77% 30.18 in
(1022 mb)
NW 8.1 mph
(NW 13 kph)
- 10SM
08:35
Mostly Cloudy
52°F / 11°C 46°F / 8°C 82% 30.18 in
(1022 mb)
NW 6.9 mph
(NW 11 kph)
- 10SM
08:15
Mostly Cloudy
52°F / 11°C 46°F / 8°C 82% 30.18 in
(1022 mb)
NNW 5.8 mph
(NNW 9 kph)
- 10SM
08:00
Mostly Cloudy
Drizzle
52°F / 11°C 46°F / 8°C 82% 30.18 in
(1022 mb)
NW 6.9 mph
(NW 11 kph)
- 10SM
07:30
Mostly Cloudy
52°F / 11°C 46°F / 8°C 82% 30.18 in
(1022 mb)
NW 8.1 mph
(NW 13 kph)
- 10SM
07:15
Overcast
52°F / 11°C 46°F / 8°C 82% 30.18 in
(1022 mb)
NW 8.1 mph
(NW 13 kph)
- 10SM
06:55
Mostly Cloudy
52°F / 11°C 46°F / 8°C 82% 30.18 in
(1022 mb)
NW 6.9 mph
(NW 11 kph)
- 10SM
06:35
Overcast
52°F / 11°C 46°F / 8°C 82% 30.18 in
(1022 mb)
NW 3.5 mph
(NW 6 kph)
- 10SM
06:15
Mostly Cloudy
50°F / 10°C 46°F / 8°C 88% 30.15 in
(1021 mb)
NW 3.5 mph
(NW 6 kph)
- 10SM
05:55
Mostly Cloudy
Drizzle
50°F / 10°C 46°F / 8°C 88% 30.15 in
(1021 mb)
NNW 5.8 mph
(NNW 9 kph)
- 7SM
05:35
Mostly Cloudy
50°F / 10°C 46°F / 8°C 88% 30.15 in
(1021 mb)
NNW 3.5 mph
(NNW 6 kph)
- 10SM
05:15
Mostly Cloudy
50°F / 10°C 46°F / 8°C 88% 30.15 in
(1021 mb)
NNW 6.9 mph
(NNW 11 kph)
- 10SM
04:55
Mostly Cloudy
50°F / 10°C 46°F / 8°C 88% 30.15 in
(1021 mb)
NW 8.1 mph
(NW 13 kph)
0.02 in
(0.51 mm)
10SM
04:35
Mostly Cloudy
Rain
52°F / 11°C 46°F / 8°C 82% 30.15 in
(1021 mb)
NNW 5.8 mph
(NNW 9 kph)
0.02 in
(0.51 mm)
5SM
04:15
Mostly Cloudy
52°F / 11°C 46°F / 8°C 82% 30.15 in
(1021 mb)
NNW 4.6 mph
(NNW 7 kph)
- 10SM
03:55
Mostly Cloudy
52°F / 11°C 46°F / 8°C 82% 30.15 in
(1021 mb)
NNW 4.6 mph
(NNW 7 kph)
- 10SM
03:35
Mostly Cloudy
52°F / 11°C 46°F / 8°C 82% 30.15 in
(1021 mb)
Calm - 10SM
03:15
Mostly Cloudy
52°F / 11°C 48°F / 9°C 88% 30.15 in
(1021 mb)
NNW 6.9 mph
(NNW 11 kph)
- 10SM
02:55
Mostly Cloudy
52°F / 11°C 46°F / 8°C 82% 30.15 in
(1021 mb)
NW 3.5 mph
(NW 6 kph)
- 10SM
02:35
Mostly Cloudy
52°F / 11°C 48°F / 9°C 88% 30.15 in
(1021 mb)
N 4.6 mph
(N 7 kph)
- 10SM
02:15
Mostly Cloudy
52°F / 11°C 48°F / 9°C 88% 30.15 in
(1021 mb)
NW 3.5 mph
(NW 6 kph)
- 10SM
01:55
Mostly Cloudy
52°F / 11°C 46°F / 8°C 82% 30.18 in
(1022 mb)
NW 6.9 mph
(NW 11 kph)
- 10SM
01:35
Mostly Cloudy
52°F / 11°C 46°F / 8°C 82% 30.18 in
(1022 mb)
NW 6.9 mph
(NW 11 kph)
- 10SM
01:15
Overcast
52°F / 11°C 46°F / 8°C 82% 30.18 in
(1022 mb)
NW 6.9 mph
(NW 11 kph)
- 10SM
00:55
Overcast
52°F / 11°C 48°F / 9°C 88% 30.18 in
(1022 mb)
NW 8.1 mph
(NW 13 kph)
- 10SM
00:35
Overcast
50°F / 10°C 48°F / 9°C 94% 30.18 in
(1022 mb)
Calm - 10SM
00:15
Overcast
50°F / 10°C 46°F / 8°C 88% 30.18 in
(1022 mb)
Calm - 10SM
Time Weather Temperature Dewpoint Humidity Pressure Winds Precip Visibility


Weather for websites

WeatherForYou.com, LLC is not responsible for any damages or problems caused by this service. Current weather conditions are obtained from the closest station including government and personal stations which may have varying degrees of accuracy. Weather forecasts are derived from the NOAA NDFD. Like all things, this site belongs to Jesus Christ... He just trusts us to maintain it. If you have any questions or comments email webmaster@weatherforyou.com

Copyright © 2016, WeatherForYou.com LLC. All rights reserved.